Wetbulb
61.50 62.87 65.92 68.61 69.54 70.71 72.20 72.38 71.86 72.17 71.09 70.04 69.66 68.97 68.06 68.05 68.27 67.80 66.76 65.92 64.41 63.28 62.36 61.74 62.15 62.49 62.10 62.32 62.35 60.34 58.86 57.81 58.44 55.02 54.67 54.06 57.68 59.32 57.80 59.78 57.03 57.03 58.98
60.52 61.86 65.09 68.58 69.72 70.09 71.43 72.00 71.72 70.35 70.16 70.11 69.76 69.34 68.04 67.07 66.49 65.22 63.87 63.46 62.49 62.41 61.21 61.41 61.08 61.30 61.00 60.28 59.16 57.33 54.82 54.69 55.46 52.09 51.39 48.42 51.50 54.28 54.86 55.06 55.87 56.70 56.90
59.17 60.60 62.18 67.99 69.18 69.75 70.93 71.37 71.44 69.52 69.01 69.42 69.26 67.76 66.83 65.93 63.05 62.15 61.19 61.08 61.24 61.16 61.54 60.78 59.96 59.16 58.69 56.97 56.60 55.46 54.07 51.58 53.15 53.69 50.28 46.55 45.32 49.21 52.22 53.64 53.47 55.58 53.79
59.51 60.37 61.63 66.01 68.05 68.96 71.24 71.85 70.43 69.48 70.21 70.36 68.05 64.70 63.70 61.13 61.42 60.57 59.95 59.91 60.69 60.22 59.69 59.22 58.47 57.71 56.73 55.96 54.99 54.44 54.33 53.18 50.41 52.22 51.70 53.03 51.10 46.38 45.08 50.12 51.98 52.76 52.84
59.87 60.12 61.33 64.87 67.84 69.04 70.29 70.75 69.88 69.33 70.51 70.38 68.17 65.88 63.92 62.75 61.20 59.65 59.12 59.51 59.87 59.43 58.32 58.09 57.51 56.68 55.94 55.50 54.80 54.59 53.92 53.15 51.49 50.40 50.35 51.68 50.82 51.81 47.60 45.38 47.53 50.56 51.98
60.24 60.65 62.05 64.02 66.82 70.08 70.31 70.40 69.08 69.11 69.69 68.19 67.22 65.75 64.90 62.07 59.22 57.92 57.68 58.13 58.17 57.45 57.19 56.45 56.56 56.13 55.61 54.89 54.26 54.39 53.76 53.15 52.61 52.17 51.60 50.03 48.30 47.50 48.35 47.23 48.09 48.05 50.71
60.08 60.83 61.61 63.22 65.91 67.00 67.67 67.21 67.77 66.31 66.58 66.22 65.19 64.55 63.40 61.45 59.22 58.09 57.43 57.10 56.39 56.42 56.56 55.93 55.91 55.51 55.43 54.64 54.46 53.88 53.58 53.38 52.71 52.49 51.26 51.42 50.69 51.08 50.10 48.79 47.97 47.31 49.99
59.92 60.97 62.21 63.68 65.57 66.74 66.58 65.34 64.76 64.60 62.44 60.96 58.33 58.84 59.68 56.24 58.29 58.62 57.42 56.04 55.70 55.92 57.09 55.10 54.61 53.84 53.38 53.35 53.32 52.61 52.28 53.69 52.77 52.44 52.03 51.11 51.13 51.62 50.21 48.22 48.09 45.99 47.76
59.43 60.62 62.45 63.91 65.42 65.97 64.24 62.46 61.44 56.72 56.09 55.68 54.99 55.66 57.19 56.32 58.10 57.71 57.91 55.49 56.02 54.54 54.33 53.29 52.93 53.05 53.01 52.57 52.62 51.55 51.85 52.27 52.44 52.57 52.14 50.65 50.59 51.59 50.77 50.41 49.46 47.45 43.77
59.27 60.56 62.06 63.54 65.19 65.10 63.27 61.66 57.90 54.96 54.54 53.94 54.92 55.28 55.27 57.48 56.65 56.30 55.02 54.39 53.78 52.54 53.20 52.86 52.05 51.52 51.27 51.31 51.24 50.67 51.24 50.81 50.66 50.34 50.15 50.08 49.89 50.04 50.30 51.02 49.98 49.27 46.54
58.90 60.66 62.14 63.83 64.22 63.95 62.64 59.53 58.72 56.00 55.54 53.94 55.64 53.81 55.88 55.73 54.91 53.64 53.49 53.45 53.37 52.51 51.64 50.89 50.57 49.88 49.35 49.81 49.80 49.86 49.57 48.70 49.18 49.91 49.06 48.86 49.60 48.69 48.74 49.90 48.63 46.72 46.48
59.63 60.98 61.83 62.75 62.90 61.64 59.73 56.93 55.85 54.34 53.85 53.37 52.38 53.04 52.23 53.10 52.77 52.61 52.84 53.14 51.67 51.22 50.17 49.85 49.00 48.54 48.43 49.30 48.82 48.08 48.48 48.02 47.58 47.82 47.89 47.64 47.73 47.61 48.29 48.41 47.56 45.21 45.89
59.86 60.78 60.99 61.40 61.20 59.96 58.10 56.15 53.81 53.19 53.01 52.10 52.25 51.43 51.64 52.11 52.05 51.83 51.57 50.88 50.47 49.75 48.94 48.49 48.19 48.17 48.61 48.05 47.86 47.37 46.96 47.27 47.00 47.16 46.87 46.83 46.95 46.21 46.87 46.70 44.33 43.45 43.45
59.18 59.67 59.59 60.43 59.78 59.07 58.16 56.23 53.92 53.32 52.52 51.90 51.08 51.08 51.64 51.61 50.86 50.30 49.68 49.44 48.96 48.15 48.18 48.37 48.31 48.31 47.75 47.00 46.19 46.21 45.90 45.74 45.93 46.76 46.67 46.12 45.67 44.83 42.03 41.86 41.32 41.05 40.66
57.12 57.63 58.17 58.93 58.34 58.02 57.34 57.02 55.42 53.98 53.17 51.77 51.28 51.03 51.43 50.80 49.64 48.49 48.48 47.92 47.59 47.81 47.70 47.19 47.12 47.28 46.72 44.97 43.53 43.46 43.58 43.43 43.48 43.70 43.23 43.64 41.95 39.70 38.96 39.01 38.48 37.28 36.87
55.71 56.86 57.62 57.57 57.12 56.86 56.26 56.16 55.05 53.93 52.55 51.41 50.49 50.43 49.20 48.08 47.31 46.98 46.48 47.12 46.85 46.81 46.12 46.04 45.82 45.82 45.53 37.76 37.63 38.05 41.01 41.99 41.40 39.75 39.80 40.04 39.68 40.23 37.15 36.51 35.97 35.58 35.23
56.10 56.67 57.18 57.22 56.62 56.87 56.33 55.02 54.17 52.99 51.69 50.51 49.76 48.05 47.09 45.77 45.64 45.69 45.62 45.77 45.50 45.37 45.51 45.51 45.94 45.65 42.20 37.56 37.06 36.42 39.66 40.73 39.67 38.60 38.89 38.19 39.54 38.06 38.62 36.92 35.14 34.72 34.64
56.41 56.89 57.25 57.12 56.77 56.49 55.73 54.71 52.81 51.29 50.72 49.34 47.85 46.55 45.53 44.60 44.64 44.30 44.30 44.75 45.01 45.33 46.02 45.55 43.49 42.85 42.58 36.78 36.59 35.84 40.70 41.42 40.45 39.78 38.81 38.05 38.04 37.94 36.94 35.53 34.40 34.46 35.13
57.17 57.76 58.03 57.25 56.92 55.80 54.81 52.99 51.11 50.37 49.00 47.45 45.58 44.20 44.15 43.65 42.96 42.78 43.59 44.11 44.85 44.43 43.77 43.05 42.55 42.41 42.89 36.73 35.81 36.28 39.57 39.66 39.59 39.37 39.24 37.90 37.47 36.23 35.40 33.79 32.80 32.75 33.86
57.93 57.76 57.60 57.04 56.22 55.00 53.40 51.14 49.66 49.09 47.11 45.45 43.37 43.29 43.48 43.06 43.03 43.69 44.03 43.60 44.10 43.22 42.84 42.31 42.41 36.87 41.84 35.69 35.67 36.33 38.15 36.64 36.53 37.49 37.59 35.60 35.40 33.79 33.53 33.68 32.81 31.45 32.74
58.09 58.09 57.33 55.50 54.83 53.39 51.39 49.11 47.74 46.06 44.41 42.75 42.60 43.37 43.75 43.92 43.85 43.12 43.06 42.59 42.64 42.52 41.89 40.84 42.11 41.97 39.83 39.28 35.29 35.18 35.99 36.24 35.07 35.26 35.68 36.49 34.84 34.07 33.92 33.86 34.07 33.45 33.89
57.43 57.07 55.05 53.02 51.36 50.34 47.69 44.74 43.36 42.84 42.38 42.06 42.71 42.99 43.43 42.63 42.29 42.38 42.40 42.68 41.96 40.85 40.43 40.03 39.97 41.33 41.19 36.55 36.77 35.37 34.10 34.39 34.68 34.29 35.88 36.83 34.55 34.01 34.04 34.39 34.15 33.13 32.46
53.44 53.11 51.00 48.07 46.70 46.07 45.10 42.68 43.36 44.08 42.42 41.54 41.57 41.55 41.37 41.72 42.11 42.19 41.05 41.60 41.09 40.44 38.72 37.85 38.87 39.19 39.56 40.30 35.94 34.74 33.97 33.54 34.35 35.19 34.43 33.17 33.60 34.07 34.70 34.80 33.42 32.37 34.42
49.47 48.93 47.18 45.53 44.43 45.74 44.98 44.56 42.67 42.07 40.37 38.76 39.25 40.39 39.85 40.34 41.43 41.28 41.44 41.47 41.59 40.08 38.08 37.71 37.53 38.12 38.10 38.61 38.43 36.47 36.17 35.00 34.46 32.73 32.34 33.16 32.04 32.53 33.86 34.39 35.12 35.12 35.14
45.73 45.67 44.44 42.73 42.66 43.01 42.31 40.82 41.06 40.43 37.79 37.46 37.65 37.98 37.28 37.53 38.90 39.75 40.75 40.08 40.28 39.29 38.68 38.28 37.36 36.91 34.66 36.63 34.17 32.89 33.03 33.19 32.23 31.25 33.12 33.07 33.93 34.46 34.22 33.92 34.25 34.61 34.71
43.27 42.02 41.77 41.35 41.33 40.41 38.88 39.47 39.63 38.71 37.37 36.96 36.74 36.80 36.70 35.84 38.28 37.41 35.86 31.30 33.62 32.42 31.58 31.54 33.55 34.04 33.24 32.24 32.62 31.76 30.94 31.68 31.30 31.40 31.55 31.16 31.33 32.31 32.97 32.12 32.38 33.36 33.58
MSLP
1000.97 1001.50 1002.52 1003.60 1004.88 1005.33 1006.52 1007.89 1008.92 1009.94 1010.96 1011.87 1012.51 1012.95 1013.37 1014.05 1014.63 1015.15 1015.68 1015.83 1016.15 1016.33 1016.29 1016.23 1016.61 1016.71 1016.85 1017.32 1017.54 1017.62 1017.43 1017.23 1017.31 1017.34 1016.73 1016.33 1015.62 1015.38 1015.25 1015.24 1015.52 1015.54 1014.96
1000.69 1001.35 1001.92 1003.60 1004.86 1005.15 1006.35 1007.47 1008.36 1009.76 1010.89 1011.38 1012.03 1012.49 1012.90 1013.64 1014.15 1014.76 1015.30 1015.65 1016.13 1016.28 1016.37 1016.55 1016.77 1017.04 1017.07 1017.66 1018.04 1018.17 1017.89 1017.47 1017.58 1017.64 1017.46 1016.49 1015.96 1015.38 1015.91 1015.98 1015.70 1015.83 1015.68
999.52 1000.35 1001.52 1003.01 1004.60 1005.14 1005.96 1006.81 1007.81 1009.49 1010.77 1011.22 1011.58 1012.65 1013.14 1013.42 1014.14 1014.87 1015.36 1015.81 1016.26 1016.56 1016.77 1016.90 1017.05 1017.40 1017.39 1017.70 1018.22 1018.35 1018.14 1017.87 1017.85 1017.84 1017.84 1017.10 1016.76 1016.69 1016.47 1016.25 1015.93 1015.87 1015.92
998.70 999.24 1000.26 1001.82 1003.76 1004.74 1005.60 1006.96 1007.74 1009.10 1009.93 1010.73 1011.26 1011.95 1012.40 1012.91 1013.64 1014.40 1014.91 1015.69 1016.26 1016.72 1017.09 1017.26 1017.45 1017.68 1017.71 1018.13 1018.17 1018.28 1018.61 1018.42 1018.14 1017.99 1017.79 1017.91 1017.82 1017.32 1016.59 1016.56 1016.20 1016.00 1015.77
997.99 998.36 999.09 1000.63 1002.81 1004.33 1005.11 1006.89 1007.77 1008.52 1009.18 1009.99 1010.73 1011.45 1012.04 1012.67 1013.38 1014.05 1015.10 1015.52 1016.16 1016.69 1016.98 1017.26 1017.61 1017.88 1017.83 1018.26 1018.50 1018.65 1018.72 1018.60 1018.42 1018.23 1018.17 1018.00 1017.72 1017.38 1017.15 1016.30 1016.10 1016.05 1015.78
997.43 997.74 998.28 999.67 1001.57 1003.65 1004.87 1006.03 1007.37 1007.92 1008.71 1009.73 1010.22 1010.98 1011.39 1012.04 1013.04 1013.93 1014.71 1015.36 1015.97 1016.50 1016.90 1017.25 1017.53 1017.90 1018.11 1018.31 1018.55 1018.65 1018.68 1018.73 1018.81 1018.68 1018.40 1018.06 1017.77 1017.56 1017.37 1016.78 1016.31 1015.88 1015.36
996.62 997.35 997.99 998.93 1000.85 1002.78 1004.70 1006.23 1007.16 1007.72 1008.66 1009.50 1010.26 1010.82 1011.28 1012.17 1012.90 1013.68 1014.17 1014.81 1015.44 1016.03 1016.81 1017.22 1017.69 1017.80 1018.07 1018.43 1018.56 1018.62 1018.79 1018.91 1018.76 1018.69 1018.52 1018.26 1018.00 1017.77 1017.48 1016.98 1016.19 1015.56 1015.11
995.90 997.01 997.84 998.68 1000.41 1002.43 1004.48 1006.24 1007.36 1007.89 1009.02 1009.92 1010.66 1011.29 1011.72 1012.36 1012.79 1013.34 1013.80 1014.63 1015.28 1015.96 1016.79 1017.35 1017.75 1018.03 1018.33 1018.57 1018.61 1018.73 1018.83 1018.81 1018.76 1018.73 1018.64 1018.37 1018.13 1017.89 1017.50 1017.05 1016.46 1015.43 1014.92
995.28 996.32 997.63 998.61 1000.08 1002.29 1004.45 1006.23 1007.61 1008.59 1009.30 1009.92 1010.66 1011.13 1011.96 1012.22 1012.67 1013.38 1014.24 1014.89 1015.50 1016.35 1017.06 1017.51 1017.85 1018.14 1018.43 1018.58 1018.68 1018.90 1018.84 1018.85 1018.89 1018.78 1018.59 1018.32 1018.00 1017.84 1017.43 1017.07 1016.74 1016.25 1015.32
995.05 995.84 997.40 998.56 1000.18 1002.54 1004.72 1006.37 1007.73 1008.23 1008.95 1009.73 1010.46 1011.08 1011.64 1012.26 1013.16 1013.90 1014.51 1015.29 1015.90 1016.44 1017.13 1017.59 1017.99 1018.29 1018.50 1018.64 1018.88 1019.02 1018.88 1018.85 1018.87 1018.70 1018.50 1018.50 1018.20 1017.76 1017.49 1017.18 1016.71 1016.28 1016.08
994.86 995.95 997.55 998.66 1000.62 1002.64 1004.60 1006.35 1007.16 1007.73 1008.59 1009.49 1010.21 1011.07 1011.80 1012.65 1013.44 1014.16 1014.95 1015.50 1016.12 1016.68 1017.25 1017.69 1018.01 1018.29 1018.54 1018.83 1019.15 1019.10 1019.02 1018.93 1018.88 1018.83 1018.71 1018.47 1018.35 1017.83 1017.39 1017.08 1016.87 1017.08 1016.98
994.76 996.25 997.79 998.86 1000.14 1002.26 1004.18 1005.92 1006.82 1007.32 1008.28 1009.28 1010.33 1011.12 1012.11 1012.66 1013.39 1014.27 1014.99 1015.70 1016.25 1016.96 1017.41 1017.73 1018.05 1018.29 1018.60 1018.98 1019.17 1019.17 1019.17 1019.06 1018.97 1018.94 1018.81 1018.55 1018.23 1017.91 1017.54 1017.18 1016.67 1016.80 1016.80
995.08 996.57 998.04 999.16 1000.13 1001.43 1003.44 1005.06 1006.43 1007.04 1007.87 1009.05 1010.13 1011.15 1011.96 1012.40 1013.32 1014.32 1015.24 1015.91 1016.40 1016.94 1017.43 1017.81 1018.08 1018.39 1018.82 1019.17 1019.38 1019.39 1019.40 1019.39 1019.28 1019.16 1018.91 1018.62 1018.27 1017.89 1017.59 1017.41 1017.53 1017.55 1017.00
995.47 996.62 997.92 999.18 1000.56 1001.57 1002.65 1004.13 1005.75 1006.64 1007.44 1008.73 1009.93 1010.98 1011.60 1012.33 1013.52 1014.59 1015.36 1015.97 1016.49 1016.97 1017.41 1017.80 1018.18 1018.63 1019.05 1019.32 1019.57 1019.67 1019.84 1019.81 1019.49 1019.29 1019.07 1018.86 1018.65 1018.43 1018.85 1018.56 1018.31 1017.88 1017.40
995.57 996.45 997.51 998.82 1000.10 1001.33 1002.00 1003.44 1004.89 1005.95 1006.98 1008.27 1009.62 1010.68 1011.65 1012.70 1013.81 1014.76 1015.41 1016.01 1016.49 1016.91 1017.39 1017.88 1018.30 1018.77 1019.18 1019.51 1020.29 1020.36 1020.23 1019.93 1019.64 1019.56 1019.62 1019.43 1019.30 1019.48 1019.54 1019.24 1018.78 1018.59 1018.04
995.18 996.09 997.15 998.39 999.61 1000.65 1001.49 1002.71 1004.09 1005.29 1006.65 1008.06 1009.31 1010.66 1011.88 1012.95 1013.86 1014.73 1015.37 1015.92 1016.41 1016.98 1017.59 1017.96 1018.41 1018.78 1019.12 1020.46 1020.87 1020.89 1020.53 1019.98 1019.73 1019.78 1019.94 1019.84 1019.67 1019.24 1019.15 1019.17 1019.09 1019.05 1018.41
994.28 995.14 996.13 997.34 998.88 999.95 1001.15 1002.21 1003.76 1005.30 1006.55 1007.81 1009.25 1010.67 1011.82 1012.75 1013.76 1014.49 1015.24 1015.78 1016.39 1016.97 1017.49 1017.92 1018.29 1018.56 1019.80 1020.49 1020.83 1020.90 1020.32 1019.81 1019.79 1019.89 1019.72 1019.64 1019.58 1019.45 1019.14 1018.81 1018.51 1018.28 1017.95
993.49 994.31 995.25 996.39 998.04 999.47 1000.88 1002.26 1003.70 1005.29 1006.52 1007.79 1009.27 1010.52 1011.58 1012.58 1013.42 1014.37 1015.12 1015.87 1016.48 1016.97 1017.21 1017.79 1018.71 1019.18 1019.52 1020.26 1020.68 1020.58 1019.96 1019.58 1019.54 1019.52 1019.64 1019.45 1019.09 1019.01 1018.82 1018.44 1017.92 1017.57 1017.09
992.20 993.01 994.33 995.55 997.37 998.77 1000.48 1001.84 1003.54 1005.28 1006.75 1008.01 1009.31 1010.35 1011.42 1012.51 1013.62 1014.39 1015.15 1015.85 1016.27 1017.10 1017.57 1018.02 1018.45 1018.73 1019.01 1019.84 1020.25 1020.11 1019.63 1019.38 1019.50 1019.38 1019.30 1019.45 1018.98 1018.84 1018.70 1018.18 1017.64 1016.89 1016.18
990.84 992.16 993.82 995.46 996.87 998.23 1000.03 1001.75 1003.48 1005.18 1006.71 1008.47 1009.38 1010.34 1011.51 1012.70 1013.65 1014.49 1015.21 1015.87 1016.36 1016.84 1017.43 1017.65 1018.02 1018.77 1018.64 1019.71 1019.98 1019.86 1019.74 1019.69 1019.59 1019.37 1019.17 1018.96 1018.70 1018.42 1018.24 1017.98 1017.21 1016.31 1015.64
989.95 991.44 992.94 995.11 996.76 998.31 1000.09 1001.84 1003.85 1005.53 1007.39 1008.98 1009.49 1010.47 1011.70 1012.64 1013.64 1014.74 1015.35 1015.86 1016.20 1016.66 1017.02 1017.42 1017.81 1018.06 1018.75 1019.08 1019.58 1020.03 1020.07 1019.72 1019.65 1019.13 1018.76 1018.55 1018.27 1017.95 1017.75 1017.41 1016.74 1015.92 1015.44
989.85 991.48 993.42 995.43 997.46 999.11 1001.11 1002.90 1004.65 1006.53 1008.04 1008.98 1009.37 1010.61 1011.74 1012.71 1013.75 1014.57 1015.04 1015.47 1015.90 1016.50 1017.04 1017.60 1017.85 1018.33 1018.68 1019.00 1019.32 1019.58 1019.86 1019.81 1019.56 1019.19 1018.99 1018.37 1018.00 1017.56 1016.95 1016.42 1015.88 1015.30 1014.94
991.39 992.77 994.69 996.89 998.74 1000.31 1001.85 1003.59 1005.26 1006.87 1008.16 1009.03 1009.90 1011.00 1011.94 1012.95 1013.71 1014.15 1014.89 1015.46 1015.97 1016.61 1017.12 1017.69 1017.78 1018.10 1018.52 1018.73 1019.10 1019.29 1019.49 1019.51 1019.23 1019.00 1018.79 1018.43 1017.61 1016.91 1016.29 1015.69 1015.30 1014.83 1014.46
993.69 995.13 996.63 998.57 1000.48 1001.80 1003.41 1004.78 1006.36 1007.44 1008.71 1009.42 1010.52 1011.51 1012.35 1013.13 1013.68 1014.33 1014.83 1015.46 1016.09 1016.64 1017.15 1017.68 1017.93 1018.29 1018.61 1018.79 1019.02 1019.18 1018.90 1018.85 1019.00 1018.90 1018.44 1017.99 1017.31 1016.41 1015.90 1015.42 1014.96 1014.52 1014.21
995.68 996.82 998.01 999.59 1001.03 1002.65 1004.17 1005.87 1007.24 1007.99 1009.06 1010.08 1011.52 1012.30 1012.79 1013.28 1013.95 1014.63 1015.16 1015.67 1016.38 1016.89 1017.14 1017.46 1017.97 1018.53 1018.79 1018.78 1019.14 1019.28 1018.97 1018.91 1019.01 1018.72 1017.97 1017.39 1016.92 1016.27 1015.68 1015.31 1014.79 1014.38 1013.98
997.40 998.64 999.78 1000.87 1002.16 1003.69 1005.19 1006.69 1007.67 1008.10 1009.12 1010.58 1011.54 1012.27 1013.05 1013.85 1014.26 1014.90 1015.84 1016.42 1016.93 1017.28 1017.64 1018.02 1018.44 1018.83 1018.80 1018.96 1019.05 1019.08 1018.94 1018.84 1018.82 1018.48 1017.64 1017.18 1016.86 1016.50 1015.75 1015.32 1014.73 1014.34 1013.90
Wind_Speed
17 17 20 14 16 15 17 19 19 16 11 10 10 9 11 9 9 8 10 9 7 6 4 4 4 1 2 3 2 3 5 5 6 7 8 9 10 7 8 7 10 13 10
18 19 16 17 16 17 18 20 19 16 12 10 10 10 10 10 9 9 9 9 8 6 5 4 3 1 4 3 3 4 4 4 5 6 9 6 8 7 11 9 7 11 9
21 20 21 20 19 19 20 21 20 17 14 13 11 10 7 9 9 9 8 8 8 6 6 5 5 4 1 3 3 3 5 5 6 5 5 6 5 9 9 10 9 10 9
22 20 22 22 21 21 18 18 15 18 17 20 15 16 12 12 10 10 9 9 9 7 5 5 4 3 2 2 2 4 4 5 6 6 6 6 8 9 10 9 9 10 10
22 21 22 24 23 21 19 20 16 18 16 19 18 15 14 11 11 9 12 10 9 8 7 5 4 3 1 2 2 3 5 5 6 6 7 7 8 8 10 11 11 11 10
21 22 19 21 22 18 16 17 17 18 17 19 18 18 16 13 12 12 10 9 8 7 6 5 3 2 1 2 3 4 6 6 7 7 8 8 9 9 10 11 11 12 9
18 19 19 20 22 23 17 13 18 17 18 18 16 16 13 14 14 14 10 11 8 7 7 4 3 2 1 3 4 5 7 7 7 8 8 9 9 9 9 10 10 11 10
16 18 19 20 22 21 17 19 17 19 18 15 12 10 12 7 9 11 10 8 7 6 7 4 2 1 2 4 4 5 6 7 7 9 9 9 9 9 10 11 11 12 12
18 20 18 18 20 20 16 19 19 17 17 15 12 11 12 10 11 11 9 7 7 6 5 4 2 1 2 3 5 6 7 7 8 8 9 9 9 9 10 10 10 11 13
17 13 14 17 16 18 15 19 20 18 17 15 13 11 8 12 12 11 10 10 8 6 6 4 3 1 3 5 6 7 8 8 7 7 9 10 9 10 9 9 10 10 10
16 13 14 16 17 17 17 17 20 22 21 15 15 10 12 13 12 11 10 9 8 7 5 3 1 2 3 5 6 7 7 7 8 9 9 10 12 9 10 9 10 8 11
12 13 16 18 21 20 20 19 17 19 17 16 12 13 11 14 13 12 11 9 8 5 4 3 1 1 3 5 5 6 7 8 9 9 10 11 9 12 12 10 12 8 13
12 14 16 19 20 22 21 22 20 20 18 16 16 14 14 15 14 12 11 8 7 5 4 3 1 1 2 4 4 5 6 8 9 9 10 11 12 13 11 12 10 11 10
14 16 18 19 19 20 21 22 20 17 18 17 16 15 17 15 13 11 10 8 6 5 4 3 1 1 3 3 4 5 7 8 9 10 11 12 13 13 13 13 15 13 13
15 17 19 18 20 21 22 21 21 20 19 19 19 18 15 13 12 11 9 7 6 5 4 4 4 3 2 2 5 7 8 9 10 10 11 11 13 15 14 10 11 12 12
19 20 20 21 22 23 22 21 20 19 20 20 19 18 14 13 12 11 9 8 7 6 4 5 4 4 4 10 7 6 8 9 9 10 10 12 14 14 12 12 10 11 14
20 21 23 22 20 21 20 21 19 18 19 20 19 17 14 15 13 11 10 9 8 7 7 6 5 3 11 8 5 5 7 7 7 8 9 11 10 14 12 12 12 15 14
19 20 20 21 22 23 22 20 20 20 19 20 20 16 14 14 13 12 10 9 7 7 7 5 3 3 1 5 3 5 8 7 7 8 11 12 13 11 12 14 16 14 14
22 18 18 20 20 22 20 20 21 20 21 20 18 15 14 13 12 12 11 10 8 6 6 5 5 4 1 9 1 7 8 8 10 10 12 13 13 14 16 15 16 15 14
19 17 19 20 22 22 22 22 21 21 20 18 16 15 13 13 13 12 10 8 8 7 5 5 4 6 3 9 7 8 6 8 8 10 12 10 13 12 15 14 14 14 12
17 17 20 17 18 21 21 22 20 19 17 15 16 15 15 14 13 12 10 9 8 7 6 6 4 3 4 4 6 3 6 7 9 9 9 8 14 13 21 21 12 12 12
16 14 17 17 18 20 19 19 19 16 17 16 16 16 14 11 11 12 10 9 9 8 6 4 3 2 2 2 2 4 6 8 9 10 9 11 20 24 22 16 13 14 10
10 13 16 16 15 19 19 21 19 20 18 16 16 15 13 11 12 10 11 7 8 7 6 4 3 2 1 2 5 5 7 9 8 9 13 20 21 19 12 11 14 9 6
14 14 19 20 18 18 19 19 18 17 16 15 12 12 11 10 9 7 7 7 6 5 5 4 2 1 2 2 3 5 6 6 6 8 11 12 12 11 8 7 7 6 6
13 14 15 16 17 17 16 17 16 17 15 14 10 9 8 7 10 8 6 6 6 5 6 5 3 2 3 2 4 6 7 8 7 9 8 7 9 9 8 8 8 7 6
13 14 16 17 18 18 17 15 15 16 18 14 11 10 9 7 6 8 6 7 6 6 4 2 2 2 5 8 9 10 11 12 12 8 7 8 7 8 8 8 8 8 6
Wind_Direction
256 233 205 195 218 198 183 186 182 176 163 161 153 163 163 158 155 156 162 148 148 137 166 129 147 178 64 44 19 325 329 315 4 311 327 315 279 316 304 349 335 309 319
233 236 203 196 210 202 196 188 186 162 165 169 170 171 162 164 156 150 156 143 150 151 140 139 146 36 125 96 32 4 344 329 5 335 313 333 299 7 348 326 320 309 340
237 221 223 187 201 211 199 191 182 166 164 178 161 161 149 151 157 156 154 155 148 140 137 141 103 121 21 80 23 11 359 336 330 349 309 326 333 322 318 321 309 338 322
245 233 211 192 202 209 197 188 178 172 181 177 165 167 170 169 173 169 155 150 148 146 137 123 109 73 84 73 14 39 337 324 318 329 330 315 302 311 310 307 308 307 307
240 237 211 199 201 204 191 186 192 179 177 176 172 172 178 180 163 160 150 150 149 152 152 142 132 129 24 55 332 326 327 316 320 320 313 310 300 301 303 304 308 308 305
235 236 218 206 191 196 185 180 192 179 174 178 177 182 178 162 165 159 163 157 159 156 148 149 157 139 14 318 311 318 304 307 306 296 296 300 308 306 303 301 306 301 298
223 233 223 208 186 188 175 178 194 171 179 181 176 181 169 165 165 162 166 161 163 164 153 170 175 221 318 297 301 306 306 294 290 305 303 303 297 302 297 296 296 300 301
219 225 225 214 188 182 169 181 191 174 172 173 161 147 151 160 164 177 155 165 161 156 133 170 204 259 300 301 307 307 291 298 298 300 296 298 297 295 298 299 302 300 300
240 212 220 220 188 172 167 178 185 168 164 154 151 148 173 162 162 145 150 143 131 129 153 168 211 231 284 321 324 300 300 299 301 303 295 295 301 300 295 298 299 299 302
239 210 209 212 178 170 167 177 179 165 159 150 151 154 153 154 145 147 150 148 137 140 159 163 172 271 318 319 309 295 300 308 307 299 307 304 299 303 303 294 296 306 319
236 199 203 191 182 166 175 180 182 162 162 148 152 141 149 146 149 149 147 145 145 153 162 164 170 300 322 311 298 299 300 304 308 309 303 306 305 305 307 307 298 300 292
226 194 196 184 175 174 176 177 176 163 156 150 142 145 144 151 150 150 149 147 148 150 161 172 190 328 311 298 311 306 322 313 310 312 311 310 313 308 303 297 306 318 296
202 187 192 188 182 177 177 176 177 164 154 152 148 153 157 156 153 149 147 155 152 156 161 142 140 308 303 293 308 311 320 316 314 308 312 308 310 308 306 320 320 299 301
197 186 192 187 188 184 178 176 174 165 157 154 158 160 162 152 145 147 148 148 149 152 150 141 147 214 256 284 331 340 338 319 316 316 316 313 312 331 330 314 309 311 307
198 194 194 188 190 188 180 181 175 170 165 162 165 162 151 141 140 145 143 137 146 140 155 163 171 194 231 37 13 348 325 320 316 321 320 313 330 320 292 299 309 308 302
196 198 195 193 193 190 184 181 176 170 168 168 164 154 144 141 148 144 143 144 144 153 165 174 165 190 84 82 65 354 313 316 322 318 316 314 309 299 328 304 297 292 299
204 199 198 194 191 189 183 178 173 166 172 168 156 151 151 147 147 146 146 146 157 150 166 172 188 192 111 85 41 349 309 319 324 317 312 309 308 314 308 309 302 297 280
213 210 202 191 191 184 181 174 168 171 170 167 156 153 149 147 145 148 149 157 154 174 175 137 124 169 190 80 293 316 304 327 316 306 311 305 309 311 315 315 306 299 288
230 223 205 187 180 175 174 167 167 169 173 163 156 149 145 141 148 150 158 160 157 153 157 161 174 206 150 160 86 340 340 330 326 320 311 314 310 310 311 304 300 297 293
211 213 188 187 176 168 168 165 166 172 164 160 150 139 136 146 156 159 156 150 161 157 166 161 149 115 132 106 64 16 335 324 318 311 313 303 293 292 302 302 300 298 301
209 210 179 174 174 161 163 162 162 163 148 142 139 137 151 154 147 154 161 166 155 158 149 150 157 124 74 63 74 354 329 330 324 318 319 309 296 318 309 302 295 291 304
209 181 159 159 161 155 153 152 156 142 144 149 140 144 146 148 155 165 159 159 151 148 148 149 129 122 30 95 267 226 271 310 314 314 310 300 325 307 299 298 291 291 293
130 138 142 139 138 148 151 156 152 154 148 140 138 144 144 155 158 151 152 152 148 153 146 154 135 93 39 311 187 242 281 303 306 310 303 311 303 297 299 298 306 305 299
144 139 143 146 150 153 153 159 142 136 139 132 131 143 144 147 141 142 148 146 149 153 145 137 139 169 283 299 327 331 328 317 313 312 311 296 294 286 301 315 318 317 311
137 152 148 142 143 150 139 133 143 138 128 117 135 134 132 142 145 147 147 144 149 147 156 153 164 195 252 275 336 307 313 318 314 309 297 314 325 324 328 330 325 320 318
139 136 140 146 151 132 135 138 147 140 130 145 148 150 142 138 146 139 119 61 96 125 104 100 199 234 254 289 291 300 304 300 307 307 309 318 322 315 324 324 324 320 320